Wind_Speed
2 2 2 1 2 2 2 2 2 2 2 2 2 2 2 2 2 3 3 3 3 4 4 4 4 4 4 3 3 3 4 3 3 3 3 3 3 3 3 3 4 4 4
1 1 1 1 1 2 2 3 3 3 3 3 3 3 3 3 3 3 4 4 4 4 4 4 4 4 4 4 4 4 4 4 4 4 4 4 5 5 5 4 4 5 5
1 1 1 2 2 3 3 4 4 4 4 4 4 4 4 4 4 4 4 5 5 5 5 5 5 5 5 5 5 5 5 5 5 5 5 5 5 6 6 5 5 5 5
2 2 2 2 3 4 5 5 5 4 4 5 5 5 5 5 5 5 6 6 6 6 5 5 5 6 5 5 5 6 5 5 5 6 6 7 6 7 7 7 6 7 7
2 2 2 3 4 4 5 5 5 4 4 5 5 6 6 6 6 6 6 7 7 7 7 6 6 6 6 6 6 6 6 6 6 7 7 7 7 7 7 8 7 7 7
3 3 3 3 4 4 5 5 5 5 5 5 5 5 6 6 6 7 7 7 8 8 8 7 7 7 7 7 7 7 7 7 7 8 8 8 8 8 7 8 8 8 7
4 4 4 5 5 5 5 6 6 6 6 6 6 6 7 7 7 7 7 7 8 8 8 8 8 8 8 8 8 8 8 8 8 8 8 8 8 8 8 8 8 8 8
5 6 5 5 6 6 6 6 6 7 7 7 7 7 8 8 8 8 8 8 9 9 9 9 9 8 8 8 8 8 8 8 8 9 9 9 9 8 8 8 8 8 8
6 7 6 6 7 7 7 7 8 7 7 8 7 7 8 8 8 8 9 9 9 9 9 9 9 8 8 9 9 9 9 9 9 9 9 10 10 9 9 9 9 9 9
8 7 7 7 8 8 8 8 8 8 8 8 7 8 8 9 8 8 9 9 9 9 9 9 9 9 9 9 9 10 10 10 10 9 9 10 9 9 9 9 9 9 9
8 8 9 9 9 10 10 9 9 8 7 7 8 8 8 8 8 9 9 9 9 9 10 10 10 10 10 9 9 9 10 10 9 9 9 10 10 10 10 9 9 8 8
8 9 9 9 10 10 10 9 9 9 8 7 8 8 8 8 9 9 9 9 10 10 10 10 10 10 10 9 9 9 9 10 9 9 10 10 10 10 10 10 10 9 9
9 9 9 10 10 10 10 9 9 9 9 9 9 9 9 9 9 9 10 10 10 10 10 10 10 10 10 10 10 10 10 10 10 10 10 10 10 10 10 10 10 10 10
10 10 11 10 10 10 10 10 10 9 9 10 10 10 10 10 10 10 10 10 10 10 10 10 10 10 10 10 10 10 10 10 10 10 9 9 9 9 9 9 9 9 9
10 10 10 11 11 11 11 11 10 10 11 10 10 10 10 10 10 10 10 11 11 10 9 10 10 10 10 10 10 10 10 11 11 11 9 9 9 9 9 9 8 9 9
10 10 10 11 11 11 12 11 11 11 11 11 11 10 11 11 11 11 11 11 10 10 10 10 10 10 11 11 10 11 11 11 10 9 9 9 9 9 9 9 9 9 9
11 11 11 11 11 11 11 12 12 12 12 12 11 11 11 11 11 11 11 11 10 10 11 10 10 11 11 11 11 11 11 11 10 10 9 10 10 10 10 10 10 10 10
12 12 12 12 12 12 12 12 13 13 13 13 12 12 12 12 11 11 11 11 11 11 11 11 11 11 11 11 11 11 10 10 10 10 10 11 11 11 11 11 11 10 10
12 13 13 13 12 13 13 13 14 14 14 14 14 13 13 13 12 12 12 11 11 11 12 12 12 12 11 11 11 11 10 10 11 11 12 12 11 12 12 11 12 12 12
13 13 14 14 13 13 14 14 14 14 14 14 14 14 13 13 13 13 12 12 12 12 12 12 12 12 11 11 11 11 11 11 11 12 12 12 12 12 13 12 13 13 13
14 14 14 14 14 14 14 14 14 14 14 13 13 12 12 12 12 13 13 13 13 12 13 12 12 12 11 11 11 11 11 12 12 12 12 12 12 12 13 13 13 13 13
14 14 14 14 14 14 14 14 13 13 13 12 12 11 11 11 11 12 13 13 13 12 13 12 11 11 11 11 11 11 11 11 11 12 12 12 12 12 12 12 13 12 12
13 13 13 14 13 13 13 13 13 13 13 13 12 12 11 11 11 12 12 12 12 12 12 12 11 11 11 11 11 12 11 11 11 11 12 12 12 12 13 13 13 13 13
13 13 14 13 13 13 13 13 13 14 13 13 13 13 12 12 12 13 13 12 12 12 12 11 11 11 11 11 12 12 12 12 12 12 12 13 13 14 14 14 14 14 13
13 14 14 14 14 13 13 13 14 14 14 14 14 14 13 14 13 13 13 12 12 12 12 11 11 12 12 12 11 12 13 13 13 13 13 13 13 14 14 14 14 14 13
15 15 14 14 15 14 14 14 14 14 14 14 14 14 14 13 13 13 13 13 12 12 12 12 12 12 13 13 13 13 13 13 13 14 14 14 14 14 14 14 14 15 14
Wind_Direction
81 80 81 69 28 3 3 359 350 338 310 289 299 300 293 285 285 278 277 285 296 305 306 309 308 311 309 315 311 308 307 305 303 304 298 286 285 289 280 277 275 272 273
74 71 45 355 322 317 316 317 316 309 299 278 285 296 292 287 286 289 284 286 292 298 303 303 305 308 306 303 300 304 305 304 299 298 296 290 286 284 279 273 275 274 274
359 325 315 303 306 305 308 300 295 293 289 280 276 286 285 287 283 291 293 293 293 291 296 301 299 302 299 292 293 295 296 298 297 293 292 293 289 286 281 276 275 275 275
330 318 307 302 312 312 307 301 294 289 286 276 273 277 280 284 284 287 290 291 291 290 290 295 293 294 292 291 293 293 293 294 290 287 287 289 289 285 279 276 276 276 272
310 304 302 299 302 309 306 296 296 293 289 278 272 273 279 286 287 284 285 287 288 288 283 284 287 286 288 291 292 292 292 292 291 287 286 289 290 287 281 278 276 275 273
297 300 300 297 299 304 307 289 284 294 293 290 278 279 282 285 288 285 286 286 287 289 285 285 286 284 285 288 289 286 288 289 290 287 286 289 287 285 280 279 275 275 275
290 290 292 295 292 296 305 301 288 287 288 288 284 275 286 286 285 286 289 290 289 287 285 283 283 285 287 289 288 287 285 286 287 287 283 284 284 283 280 277 275 273 274
288 287 283 288 289 291 294 292 290 285 282 284 286 281 284 288 288 289 289 290 291 291 286 284 284 287 289 289 290 288 287 287 288 285 282 283 284 282 280 277 277 275 276
283 279 277 283 287 289 291 289 286 285 282 280 282 281 285 291 290 291 292 292 292 296 295 293 292 292 296 297 292 288 287 286 285 284 283 284 284 281 279 276 274 275 273
280 276 277 280 283 284 284 289 289 287 285 284 284 284 283 286 289 291 295 291 292 294 296 294 292 293 294 294 292 287 286 287 285 283 284 285 283 279 278 275 274 274 273
276 275 277 278 282 282 283 281 285 284 281 285 287 286 287 288 290 293 293 292 293 294 295 294 293 296 294 291 288 285 287 289 285 285 285 285 282 279 280 281 279 276 275
277 277 278 277 279 279 280 281 281 281 280 281 286 286 288 289 290 293 294 296 296 296 297 294 293 295 294 293 290 284 285 284 285 287 287 286 285 283 281 281 280 276 276
280 277 279 279 279 277 279 279 279 280 281 283 287 288 291 293 290 292 294 296 298 297 297 296 294 293 291 289 287 284 279 278 282 288 288 287 285 285 283 283 277 273 273
284 278 277 277 275 276 278 276 276 278 281 286 289 288 290 290 290 292 293 296 297 297 296 294 294 291 289 290 289 288 281 275 279 286 285 284 283 286 286 286 280 278 276
281 278 277 275 274 273 273 274 275 277 283 285 287 286 285 285 285 288 291 292 293 295 295 294 295 295 292 291 288 287 286 280 276 280 280 283 284 287 287 286 287 282 279
278 277 279 276 274 273 272 273 277 281 282 283 285 285 283 283 285 287 288 289 291 292 291 289 291 295 291 288 288 287 286 282 279 277 278 280 285 287 290 291 291 286 280
279 277 275 274 275 275 274 273 276 278 277 278 282 284 283 281 284 289 290 288 290 291 290 287 288 292 292 289 286 287 285 283 276 275 278 281 283 284 285 286 290 286 284
280 276 275 276 276 275 275 274 275 278 279 280 279 281 280 277 281 286 289 289 288 288 287 285 288 290 290 287 285 283 281 281 277 276 281 283 285 284 285 284 283 283 282
282 280 277 277 278 277 276 276 277 277 279 279 278 275 273 273 275 281 285 287 287 287 285 285 289 290 286 282 279 279 281 279 278 279 280 280 282 284 285 281 280 280 281
283 281 278 278 279 279 278 278 278 280 281 278 277 272 271 271 273 277 282 283 283 284 285 287 287 288 284 281 277 278 282 283 280 281 281 281 282 283 284 282 278 279 281
284 281 279 279 280 280 279 278 278 280 279 276 273 270 271 272 273 275 279 281 282 283 286 286 284 285 284 281 278 281 282 282 281 281 282 282 283 283 280 279 279 278 279
284 282 283 283 282 281 279 279 281 280 278 276 276 275 275 272 275 279 281 282 281 283 286 285 280 281 282 279 278 281 283 283 282 280 280 281 282 284 284 280 278 275 277
284 284 283 282 280 279 278 278 278 279 278 279 280 278 276 274 277 280 282 284 283 282 285 284 281 281 281 280 279 279 281 281 282 284 283 282 281 283 283 282 280 278 278
286 284 281 280 277 276 278 280 280 278 278 279 278 274 272 272 274 278 279 280 281 284 284 281 280 280 281 280 280 280 281 283 285 288 285 284 283 283 282 280 279 279 277
287 283 280 279 279 278 279 279 280 280 279 277 273 273 273 271 273 275 276 278 279 282 281 279 279 277 280 281 282 281 281 284 286 288 287 284 283 283 282 280 278 278 278
288 281 277 277 277 277 278 278 279 278 277 277 273 271 271 270 273 276 275 277 280 282 280 275 276 275 277 279 280 280 282 285 285 288 286 286 285 285 284 282 280 281 281
Height
5895 5894 5894 5893 5893 5893 5893 5892 5892 5892 5892 5892 5892 5891 5891 5891 5890 5890 5889 5889 5888 5887 5886 5886 5885 5884 5884 5883 5883 5882 5882 5881 5880 5880 5879 5879 5878 5878 5877 5877 5876 5876 5876
5895 5894 5894 5893 5893 5893 5892 5892 5892 5892 5892 5892 5891 5891 5891 5891 5890 5890 5889 5888 5888 5887 5886 5885 5885 5884 5883 5883 5882 5882 5881 5880 5880 5879 5878 5878 5877 5877 5877 5876 5876 5875 5875
5895 5894 5894 5893 5893 5892 5892 5892 5892 5892 5891 5891 5891 5891 5891 5890 5889 5889 5888 5888 5887 5886 5885 5885 5884 5884 5883 5882 5882 5881 5880 5880 5879 5878 5878 5877 5877 5876 5876 5875 5875 5874 5874
5894 5894 5893 5893 5892 5892 5892 5891 5891 5891 5890 5890 5890 5890 5890 5889 5889 5888 5888 5887 5886 5885 5885 5884 5884 5883 5882 5881 5881 5880 5879 5879 5878 5877 5877 5876 5876 5875 5874 5874 5873 5873 5873
5894 5893 5893 5892 5892 5892 5891 5891 5890 5890 5890 5889 5889 5889 5889 5888 5888 5887 5887 5886 5885 5885 5884 5883 5882 5882 5881 5881 5880 5879 5878 5878 5877 5876 5876 5875 5874 5874 5873 5872 5872 5872 5871
5893 5893 5892 5892 5891 5891 5890 5890 5890 5889 5889 5888 5887 5888 5888 5887 5887 5886 5886 5885 5884 5884 5883 5882 5881 5881 5880 5879 5879 5878 5877 5876 5876 5875 5874 5873 5873 5872 5871 5871 5870 5870 5870
5892 5892 5892 5891 5890 5890 5889 5889 5889 5888 5888 5887 5886 5886 5886 5886 5885 5885 5884 5884 5883 5882 5881 5881 5880 5879 5879 5878 5877 5877 5876 5875 5874 5873 5873 5872 5871 5870 5870 5869 5869 5868 5868
5891 5891 5890 5890 5890 5889 5888 5888 5887 5887 5886 5886 5885 5885 5885 5884 5884 5883 5883 5882 5881 5881 5880 5879 5879 5878 5877 5876 5876 5875 5874 5874 5873 5872 5871 5870 5869 5869 5868 5867 5867 5867 5866
5890 5890 5889 5889 5888 5888 5887 5887 5886 5886 5885 5885 5884 5883 5883 5883 5882 5882 5881 5881 5880 5879 5879 5878 5877 5876 5875 5875 5874 5873 5872 5872 5871 5870 5869 5868 5868 5867 5866 5866 5865 5865 5864
5888 5888 5888 5887 5887 5887 5886 5885 5884 5884 5884 5883 5883 5882 5882 5881 5880 5880 5879 5879 5879 5878 5877 5876 5875 5874 5874 5873 5872 5871 5871 5870 5869 5868 5867 5867 5866 5865 5864 5864 5863 5863 5862
5886 5886 5886 5886 5885 5885 5884 5883 5883 5882 5882 5882 5881 5880 5880 5879 5879 5878 5878 5877 5876 5876 5875 5874 5873 5872 5871 5871 5870 5869 5869 5868 5867 5866 5865 5865 5864 5863 5862 5862 5861 5861 5860
5885 5884 5884 5884 5883 5883 5882 5882 5881 5880 5880 5880 5879 5879 5878 5878 5877 5876 5876 5875 5874 5874 5873 5872 5871 5870 5869 5869 5868 5867 5867 5866 5865 5864 5864 5863 5862 5860 5860 5860 5859 5859 5858
5883 5882 5882 5881 5881 5881 5880 5880 5879 5879 5878 5878 5877 5877 5876 5876 5875 5874 5874 5873 5872 5872 5871 5870 5869 5868 5867 5867 5866 5865 5864 5864 5863 5862 5861 5860 5860 5859 5858 5857 5857 5856 5856
5880 5880 5880 5879 5879 5879 5878 5878 5877 5877 5876 5876 5875 5875 5874 5874 5873 5872 5872 5871 5870 5869 5869 5868 5867 5866 5865 5864 5863 5863 5862 5861 5861 5860 5859 5858 5858 5857 5856 5855 5855 5854 5854
5878 5878 5877 5877 5877 5876 5876 5875 5875 5875 5874 5873 5873 5872 5872 5872 5871 5870 5869 5869 5868 5867 5866 5866 5865 5864 5863 5862 5861 5860 5860 5859 5858 5858 5857 5856 5855 5855 5854 5853 5853 5852 5852
5875 5875 5875 5874 5874 5873 5873 5873 5872 5872 5872 5871 5870 5870 5869 5869 5868 5868 5867 5866 5865 5865 5864 5863 5862 5862 5861 5860 5859 5858 5857 5857 5856 5855 5855 5854 5854 5853 5852 5851 5850 5850 5849
5872 5872 5872 5871 5871 5871 5870 5870 5870 5869 5869 5868 5867 5867 5867 5866 5865 5865 5864 5864 5863 5862 5862 5861 5860 5859 5858 5857 5856 5856 5855 5854 5853 5853 5852 5852 5851 5851 5850 5849 5848 5847 5847
5869 5869 5868 5868 5868 5868 5867 5867 5866 5866 5866 5865 5864 5864 5863 5863 5863 5862 5862 5861 5860 5860 5859 5858 5857 5856 5856 5855 5854 5853 5852 5851 5851 5850 5850 5849 5849 5848 5847 5846 5845 5845 5844
5866 5865 5865 5865 5865 5864 5864 5863 5863 5863 5862 5861 5861 5860 5860 5860 5860 5859 5859 5858 5858 5857 5856 5855 5855 5854 5853 5852 5851 5850 5849 5849 5848 5848 5847 5846 5846 5845 5844 5844 5843 5842 5841
5862 5862 5862 5861 5861 5861 5860 5860 5859 5859 5858 5857 5857 5857 5857 5856 5856 5856 5856 5855 5855 5854 5853 5852 5852 5851 5850 5850 5849 5848 5847 5846 5845 5845 5844 5844 5843 5842 5842 5841 5840 5840 5838
5859 5858 5858 5858 5857 5857 5856 5856 5855 5855 5854 5854 5853 5853 5853 5853 5853 5852 5852 5852 5851 5851 5850 5849 5849 5848 5847 5846 5846 5845 5844 5844 5843 5842 5841 5841 5840 5839 5838 5838 5837 5836 5836
5855 5855 5854 5854 5854 5853 5852 5852 5852 5851 5850 5850 5850 5850 5850 5850 5849 5849 5849 5848 5848 5847 5847 5846 5845 5845 5844 5843 5843 5842 5842 5841 5840 5839 5839 5838 5837 5836 5835 5834 5834 5833 5832
5852 5851 5851 5850 5850 5849 5849 5848 5848 5848 5847 5847 5847 5847 5847 5846 5846 5846 5845 5844 5844 5844 5843 5842 5842 5841 5841 5840 5840 5840 5839 5838 5837 5837 5835 5835 5834 5833 5832 5831 5830 5830 5829
5848 5847 5847 5846 5846 5845 5845 5845 5844 5844 5844 5844 5843 5843 5843 5843 5843 5842 5841 5841 5841 5840 5839 5839 5839 5838 5838 5837 5837 5836 5836 5835 5835 5834 5833 5831 5830 5830 5829 5828 5827 5826 5826
5844 5843 5842 5842 5841 5841 5841 5841 5840 5840 5840 5840 5839 5839 5839 5839 5839 5838 5838 5837 5837 5836 5836 5836 5835 5835 5834 5834 5833 5833 5832 5832 5831 5830 5829 5829 5827 5826 5825 5824 5824 5823 5822
5840 5839 5838 5838 5837 5837 5837 5837 5836 5836 5836 5835 5835 5835 5835 5835 5835 5835 5834 5834 5833 5833 5832 5832 5831 5831 5831 5830 5830 5829 5829 5828 5827 5826 5826 5825 5824 5823 5822 5821 5820 5819 5818